Location: El Diablo
(32.4667°N, 116.4500°W)
Time: 22:23:39
(UTC+00:00)

BlueWalker 3 - Visible Passes

Search period start: 16 January 2026 00:00
Search period end: 26 January 2026 00:00
Orbit: 451 x 463 km, 53.2° (Epoch: 16 January)

Date Brightness Start Highest point End Pass type
(mag) Time Alt. Az. Time Alt. Az. Time Alt. Az.
16 Jan 4.4 03:01:03 10° S 03:01:31 13° S 03:01:31 13° S visible
17 Jan 3.4 02:26:11 10° S 02:28:18 20° SE 02:28:18 20° SE visible
18 Jan 3.7 01:51:33 10° SSE 01:53:41 15° SE 01:55:01 13° E visible
18 Jan 4.4 03:27:33 10° WSW 03:28:48 19° WSW 03:28:48 19° WSW visible
19 Jan 2.3 02:52:04 10° WSW 02:55:26 52° NW 02:55:26 52° NW visible
20 Jan 1.8 02:16:39 10° SW 02:20:12 76° NW 02:22:00 27° NE visible
21 Jan 1.7 01:41:19 10° SW 01:44:52 75° SE 01:48:25 10° NE visible
21 Jan 4.7 03:21:14 10° WNW 03:22:14 12° NW 03:22:14 12° NW visible
22 Jan 4.2 02:45:04 10° WNW 02:47:15 15° NW 02:48:37 13° N visible
23 Jan 4.0 02:09:08 10° W 02:11:47 19° NW 02:14:26 10° N visible
24 Jan 3.6 01:33:21 10° W 01:36:20 25° NW 01:39:20 10° NNE visible
